Showing default

INTELSAT 35E, 42818

Orbit data source: Space-Track

INTELSAT 35E, 42818 is a payload satellite owned by Intelsat SA (US) (US) in GEO that was launched on Wed, 05 Jul 2017 UTC via an FALCON 9 launch vehicle from the Air Force Eastern Test Range (AFETR). Payloads include a variety of satellites, spacecraft, and rockets equipped with specific instruments for various scientific and technological missions. These include communications satellites like Starlink; space stations such as the ISS; scientific satellites like the Hubble; Earth observation satellites from companies like Planet Labs, Umbra, and HawkEye 360; GPS; miniature CubeSats for education and research; and military/defense satellites.

Not visible in the next 10 days
INTELSAT 35E details
Identifier
42818, 2017-041A
Orbit
GEO
Last TLE update7 hours ago
Origin
Flag of USIntelsat SA (US) (US / ITSO)
ManufacturerBoeing/ES
MissionOperational Commercial Communications
Bus & MotorBSS-702MP, IHI BT-4
Mass6,761 kg wet, ~3,500 kg dry
Launch date (UTC)
2017-07-05 (7 years ago)
Launch vehicle
FALCON 9
Launch site
Air Force Eastern Test Range (AFETR)
Object type
Payload
Rocket body
Debris
Shape & HBRBox + 2 Pan, 44 m
Radar Cross Section59.953 m², Large (>1 m²)

Expand to show TLE details & history

TLE from 7 hours ago
0 INTELSAT 35E
1 42818U 17041A   24361.23516669 -.00000209  00000-0  00000-0 0  9992
2 42818   0.0182  29.0715 0002222 257.4326 218.8929  1.00271769 27424
Epoch: 2024-12-26T05:38Z
Definitive object data (Epoch: 2024-12-26T05:38:38.402Z)
Latitude0.02877°
Longitude-34.50413°
Altitude35,793.391 km
Speed3.074 km/s
True Right ascension09h 41m 29s
True Declination0° 01' 43"
Sunlit
Object was in daylight at TLE epoch
Visualization TLE readout
Latitude-0.03291°
Longitude76.99492°
Altitude35,777.933 km
Speed3.075 km/s
Apparent Right ascension17h 33m 30s
Apparent Declination-5° 43' 57"
Sunlit
Object is in daylight
Visualization observer readout
Local Sidereal Time12:25:01
Azimuth102.718° ESE
Elevation6.085°
Doppler factor1
Orbital elements
Apogee altitude35,797.039 km
Perigee altitude35,778.301 km
Semi-major axis42,165.807 km
Eccentricity0.0002222
Inclination0.0182°
RAAN29.0715°
Arg. of periapsis257.4326°
True anomaly218.87692°
Mean anomaly218.8929°
Eccentric anomaly218.88491°
Mean motion0.25067 °/min
BSTARUnknown
Orbital period1436.15 mins
Loading historical data...
42818 neighbors
Authenticating...
Loading maneuver chart data...
Loading historical data...
Loading historical data...
Loading historical data...
Loading historical data...
Loading historical data...
Loading historical data...
Loading historical data...
Other satellites on launch #41 in the year 2017 (2017-07-05 UTC)

INTELSAT 35E Visibility forecast

Observer location: undefined°, undefined

INTELSAT 35E is not visible in the next 10 days
Span
Click to sort rows by Start time (UTC) header in descending order
Start Az.
Max El. time (UTC)
Max El. Az.
Max El.
End time (UTC)
End Az.
|